Change the Weather History Date:

Thursday, February 14, 2013

  Actual Average Record
Temperature  
Mean Temperature 36 °F 32 °F  
Max Temperature 44 °F 39 °F 56 °F (1990)
Min Temperature 28 °F 25 °F 3 °F (1979)
Degree Days  
Heating Degree Days 29 33  
Month to date heating degree days 503 472  
Since 1 July heating degree days 3189 3448  
Cooling Degree Days 0 0  
Month to date cooling degree days 0 0  
Year to date cooling degree days 0 0  
Moisture  
Dew Point 28 °F    
Average Humidity 68    
Maximum Humidity 92    
Minimum Humidity 43    
Precipitation  
Precipitation 0.01 in 0.10 in 1.34 in (1962)
Month to date precipitation 3.17 1.29  
Year to date precipitation 5.17 4.39  
Snow  
Snow T in 0.30 in 9.40 in (1962)
Month to date snowfall 30.3 3.9  
Since 1 July snowfall 51.2 17.4  
Snow Depth 16.00 in    
Sea Level Pressure  
Sea Level Pressure 29.91 in    
Wind  
Wind Speed 6 mph (West)    
Max Wind Speed 14 mph    
Max Gust Speed 17 mph    
Visibility 8 miles    
Events Snow    
T = Trace of Precipitation, MM = Missing Value Source: NWS Daily Summary

Daily Weather History Graph

Daily Weather History Graph

Search for Another Location

Airport or City:

Trip Planner

Search our weather history database for the weather conditions in past years. The results will help you decide how hot, cold, wet, or windy it might be!

Date:

Astronomy

Feb. 14, 2013 Rise Set
Actual Time 6:48 AM EST 5:25 PM EST
Civil Twilight 6:19 AM EST 5:54 PM EST
Nautical Twilight 5:47 AM EST 6:26 PM EST
Astronomical Twilight 5:15 AM EST 6:58 PM EST
Moon 8:45 AM EST (2/14) 10:29 PM EST (2/14)
Length of Visible Light 11h 34m
Length of Day
10h 37m
Waxing Crescent, 21% of the Moon is Illuminated
Feb 14
Waxing Crescent
Feb 17
First Quarter
Feb 25
Full
Mar 4
Last Quarter
Mar 11
New

Hourly Weather History & Observations

Time (EST) Temp. Windchill Dew Point Humidity Pressure Visibility Wind Dir Wind Speed Gust Speed Precip Events Conditions
12:20 AM 33.8 °F 26.4 °F 30.2 °F 87% 29.72 in 3.0 mi North 9.2 mph - 0.00 in Snow Light Snow
12:27 AM 33.8 °F 27.7 °F 30.2 °F 87% 29.72 in 2.0 mi North 6.9 mph - 0.00 in Snow Light Snow
12:52 AM 34.0 °F 26.0 °F 30.0 °F 85% 29.72 in 4.0 mi North 10.4 mph - 0.01 in Snow Light Snow
2:52 AM 33.8 °F 28.6 °F 30.2 °F 87% 29.75 in 9.0 mi North 5.8 mph - N/A   Overcast
5:52 AM 30.9 °F 26.2 °F 28.0 °F 89% 29.81 in 10.0 mi NW 4.6 mph - N/A   Clear
6:52 AM 30.0 °F 25.2 °F 27.0 °F 88% 29.85 in 7.0 mi WNW 4.6 mph - N/A   Clear
7:52 AM 32.0 °F 26.4 °F 28.9 °F 88% 29.88 in 10.0 mi NW 5.8 mph - N/A   Clear
8:52 AM 35.1 °F 28.6 °F 26.1 °F 70% 29.91 in 10.0 mi NNW 8.1 mph - N/A   Clear
9:52 AM 37.9 °F 32.7 °F 25.0 °F 60% 29.93 in 10.0 mi NW 6.9 mph - N/A   Clear
10:52 AM 39.2 °F 33.0 °F 23.0 °F 52% 29.94 in 10.0 mi NNW 9.2 mph - N/A   Clear
11:52 AM 42.1 °F 38.4 °F 21.9 °F 45% 29.94 in 10.0 mi NW 5.8 mph - N/A   Clear
12:52 PM 42.1 °F 38.4 °F 21.9 °F 45% 29.93 in 10.0 mi West 5.8 mph - N/A   Clear
1:52 PM 39.0 °F 32.8 °F 26.1 °F 60% 29.93 in 10.0 mi SSW 9.2 mph - N/A   Clear
2:52 PM 37.9 °F 30.9 °F 27.0 °F 65% 29.94 in 10.0 mi South 10.4 mph - N/A   Clear
3:52 PM 39.0 °F 33.4 °F 28.0 °F 65% 29.96 in 10.0 mi SSW 8.1 mph - N/A   Clear
4:52 PM 37.9 °F 32.7 °F 26.1 °F 62% 29.96 in 10.0 mi SSW 6.9 mph - N/A   Clear
5:52 PM 37.0 °F 31.0 °F 27.0 °F 67% 29.98 in 10.0 mi South 8.1 mph - N/A   Clear
6:52 PM 37.0 °F 31.0 °F 28.0 °F 70% 29.98 in 10.0 mi South 8.1 mph - N/A   Clear
7:52 PM 36.0 °F 30.3 °F 28.9 °F 76% 29.99 in 10.0 mi South 6.9 mph - N/A   Clear
8:52 PM 35.1 °F - 28.9 °F 78% 30.00 in 8.0 mi Calm Calm - N/A   Clear
9:52 PM 37.9 °F 34.4 °F 32.0 °F 79% 30.01 in 9.0 mi SW 4.6 mph - N/A   Partly Cloudy
10:05 PM 37.4 °F - 32.0 °F 81% 30.00 in 9.0 mi Calm Calm - N/A   Mostly Cloudy
10:12 PM 37.4 °F 34.9 °F 32.0 °F 81% 30.00 in 8.0 mi WSW 3.5 mph - N/A   Scattered Clouds
10:52 PM 37.4 °F 33.8 °F 33.8 °F 87% 30.00 in 7.0 mi SW 4.6 mph - N/A   Clear
11:52 PM 36.0 °F 33.3 °F 34.0 °F 93% 30.00 in 4.0 mi SW 3.5 mph - N/A   Overcast